CubeBel-2 (EU11S)
1 57175U 23091K   26243.46045918  .00010762  00000-0  36354-3 0  9994
2 57175  97.4978 307.4133 0008934 198.5933 161.4983 15.30808170175811
RS-38S
1 57189U 23091Z   26243.53135668  .00015309  00000-0  40818-3 0  9991
2 57189  97.5024 314.6222 0007630 151.1156 209.0513 15.38219799176261
SONATE-2
1 59112U 24043Q   26243.43270173  .00043733  00000-0  45279-3 0  9995
2 59112  97.5613  38.8171 0004999 280.2484  79.8211 15.64585115139639
GRBBeta
1 60237U 24128C   26243.60280683  .00002760  00000-0  19548-3 0  9990
2 60237  61.9905 311.5768 0029800 151.2326 209.0419 15.07108511117632
Curium One
1 60242U 24128H   26243.57806882  .00005254  00000-0  30168-3 0  9999
2 60242  61.9784 298.5540 0028899 146.1128 214.1823 15.13486650117866
ROBUSTA-3A
1 60243U 24128J   26243.58651791  .00005105  00000-0  30036-3 0  9997
2 60243  61.9865 301.4226 0030805 143.2042 217.1176 15.12602723117825
CatSat
1 60246U 24125J   26243.53079305  .00084137  00000-0  72157-3 0  9999
2 60246  97.1989  97.5323 0014638 253.7480 106.2172 15.68997883119164
HYPERVIEW-1G (RS66S)
1 61772U 24199AP  26230.11543498  .07890463  24672-5  93922-3 0  9997
2 61772  97.2456 114.2453 0006603 245.8477 114.2131 16.36574258144515
AO-123
1 61781U 24199AY  26243.59607854  .00007122  00000-0  20048-3 0  9998
2 61781  97.2873 111.5930 0014721  43.8131 316.4278 15.36667858145507
LASARsat
1 62391U 24247Q   26242.99411296  .00039408  00000-0  66476-3 0  9993
2 62391  44.9720 200.3902 0007447  99.0550 261.1185 15.51024873 94918
CroCube
1 62394U 24247T   26242.94738330  .00047376  00000-0  72358-3 0  9991
2 62394  44.9696 196.5336 0007772 109.5494 250.6238 15.53709875 94955
JINJUSat 1B
1 63210U 25052A   26243.26246012  .00015849  00000-0  45857-3 0  9995
2 63210  97.3885 140.1947 0003919 140.9814 219.1713 15.35684038 81612
NUSHSAT 1
1 63211U 25052B   26242.71610081  .00021679  00000-0  56749-3 0  9996
2 63211  97.3865 140.4997 0003581 141.1373 219.0131 15.38732884 81593
TEVEL2-4
1 63213U 25052D   26243.43280138  .00016692  00000-0  46156-3 0  9994
2 63213  97.3782 140.0396 0002795 146.6747 213.4674 15.37092267 81664
TEVEL2-5
1 63214U 25052E   26243.20230904  .00017626  00000-0  49073-3 0  9995
2 63214  97.3782 139.7329 0002617 148.0344 212.1060 15.36868609 81629
TEVEL2-6
1 63215U 25052F   26242.69545266  .00019246  00000-0  53639-3 0  9991
2 63215  97.3792 139.2091 0002456 149.5072 210.6316 15.36817902 81545
TEVEL2-1
1 63217U 25052H   26242.68737370  .00018195  00000-0  51754-3 0  9999
2 63217  97.3759 138.7313 0002115 164.0187 196.1124 15.36192793 81529
TEVEL2-3
1 63218U 25052J   26243.26509617  .00016283  00000-0  46215-3 0  9998
2 63218  97.3766 139.3435 0002057 155.2793 204.8550 15.36285727 81610
TEVEL2-2
1 63219U 25052K   26243.46877103  .00016808  00000-0  47774-3 0  9993
2 63219  97.3758 139.5184 0002198 163.2314 196.9003 15.36233249 81648
TEVEL2-9
1 63237U 25052AD  26243.28710840  .00014683  00000-0  44761-3 0  9999
2 63237  97.3820 138.5380 0004279 217.1587 142.9360 15.34049107 81539
TEVEL2-7
1 63238U 25052AE  26242.69136957  .00016266  00000-0  50133-3 0  9994
2 63238  97.3822 137.8242 0004255 219.6657 140.4275 15.33677944 81432
TEVEL2-8
1 63239U 25052AF  26242.96125466  .00015000  00000-0  46261-3 0  9990
2 63239  97.3823 138.0687 0004244 220.3885 139.7043 15.33674810 81477
SPIRONE
1 66657U 25274H   26243.55188112  .00001853  00000-0  17978-3 0  9990
2 66657  97.7471 171.7753 0013358 119.4007 240.8548 14.93801780 41478
K-HERO
1 66660U 25274L   26243.33511429  .00001434  00000-0  13891-3 0  9996
2 66660  97.7479 171.7771 0015140 124.5446 235.7206 14.94196171 41459
SNUGLITE-III DURI
1 66661U 25274M   26243.32162109  .00000992  00000-0  97730-4 0  9996
2 66661  97.7477 171.7845 0015700 125.5818 234.6868 14.94208918 41451
SAKHACUBE-CHOLBON
1 67290U 25313AU  26243.46223820  .00008178  00000-0  31921-3 0  9995
2 67290  97.3875 317.5987 0010606  91.5430 268.7024 15.26113689 37450
RS95S (QMR-KWT-2)
1 67291U 25313AV  26243.43297065  .00012497  00000-0  45813-3 0  9999
2 67291  97.3873 317.9329 0010022  89.9790 270.2598 15.28082406 37475
Ten-Koh2
1 68261U 25241B   26243.47746525  .00005380  00000-0  22758-3 0  9997
2 68261  51.6664 321.0633 0007238  32.1813 327.9606 15.24744678 26390
JACK-002
1 68417U 26067B   26243.41615365  .00005723  00000-0  26720-3 0  9992
2 68417  97.4643 201.1486 0003195  52.3926 307.7599 15.20213651 23379
DISCO 2
1 68431U 26067R   26243.44828313  .00006748  00000-0  31561-3 0  9997
2 68431  97.4675 201.1771 0004188  90.7689 269.4026 15.20083076 23377
HADES-SA (SpinnyONE)
1 68446U 26067AG  26242.86229536  .00016470  00000-0  73590-3 0  9991
2 68446  97.4465 200.1901 0007202 154.2191 205.9405 15.21391256 23276
PARUS-6U1
1 68456U 26067AS  26243.34135296  .00004603  00000-0  22825-3 0  9995
2 68456  97.4628 200.6137 0006334 145.6920 214.4724 15.18207795 23339
SAL-E
1 68458U 26067AU  26243.12047267  .00006237  00000-0  30363-3 0  9994
2 68458  97.4550 200.2998 0006289 154.0889 206.0662 15.18712229 23301
FSI-SAT 2
1 68792U 26088A   26243.37790195  .00003441  00000-0  23137-3 0  9995
2 68792  97.5168  30.8220 0013652 205.4235 154.6323 15.07341807 19610
OrigamiSat 2
1 68795U 26088D   26243.40019815  .00010944  00000-0  67062-3 0  9996
2 68795  97.5168  31.2508 0014902 175.4004 184.7365 15.10251187 19644
ARICA 2
1 68796U 26088E   26243.37342899  .00003944  00000-0  25317-3 0  9993
2 68796  97.5165  31.1178 0015568 175.9231 184.2127 15.08941623 19638
WASEDA-SAT-ZERO-II
1 68797U 26088F   26243.22042437  .00005824  00000-0  36755-3 0  9990
2 68797  97.5167  31.0099 0015364 175.6519 184.4846 15.09374684 19618
MANGARO-II-Piscus
1 68798U 26088G   26243.34323327  .00003391  00000-0  21622-3 0  9998
2 68798  97.5180  31.1713 0018874 178.7857 181.3421 15.09244963 19639
CO-128
1 69912U 26156AV  26243.44521025  .00001059  00000-0  11293-3 0  9991
2 69912  97.7495 142.9186 0002053 359.0590   1.0624 14.90911588  8212
MARINA
1 69920U 26156BD  26242.66426463  .00002375  00000-0  23905-3 0  9998
2 69920  97.7460 142.2291 0007005 347.1626  12.9413 14.92113929  8103
IO-86
1 40931U          26199.45381863  .00000000  00000-0  77536-4 0    07
2 40931   6.0006 322.6653 0012733 338.8432 273.6875 14.79294310    03
LILIUM-4                
1 71922C 26067AC  26089.50133053 -.00014632  00000+0 -74472-3 0    04
2 71922  97.4497  49.1617 0004341   5.9603 355.7042 15.16896692    16
